Regional Weather Roundup
Issued by NWS

Home | Current Version | Previous Version | Graphics & Text | Print | Product List | Glossary On
Versions: 1 2 3 4 5 6 7 8 9 10 11 12 13 14 15 16 17 18 19 20 21 22 23 24 25 26 27 28 29 30 31 32 33 34 35 36 37 38 39 40 41 42 43 44 45 46 47 48 49 50
000
ASUS43 KOAX 201702
RWRNE

WEATHER ROUNDUP FOR NEBRASKA
NATIONAL WEATHER SERVICE OMAHA NE
1100 AM CST MON FEB 20 2017

NOTES: SATELLITE DATA IS BEING USED TO AUGMENT CLOUD COVER ABOVE
       12000 FEET.
       "FAIR" INDICATES FEW OR NO CLOUDS BELOW 12,000 FEET WITH NO
       SIGNIFICANT WEATHER AND/OR OBSTRUCTIONS TO VISIBILITY.

  * THESE STATIONS DO NOT REPORT WEATHER SUCH AS RAIN...SNOW OR FOG.

NEZ001>004-019>022-054>056-201800-
NEBRASKA PANHANDLE

CITY           SKY/WX    TMP DP  RH WIND       PRES   REMARKS
SCOTTSBLUFF    SUNNY     49  22  34 NW14      29.95R
ALLIANCE       SUNNY     52  30  43 NW22G28   29.90R
CHADRON        SUNNY     50  33  52 NW21G28   29.89F
SIDNEY         SUNNY     51  20  29 NW28G36   29.95R
$$

NEZ057>060-069>072-079>082-201800-
SOUTHWEST NEBRASKA

CITY           SKY/WX    TMP DP  RH WIND       PRES   REMARKS
NORTH PLATTE   CLOUDY    54  37  52 N17G28    29.85R
IMPERIAL       MOSUNNY   53  23  31 NW26G37   29.90R
LEXINGTON      PTSUNNY   57  39  52 NW30G36   29.83R
MCCOOK         SUNNY     57  34  41 N28G43    29.85R
OGALLALA       MOSUNNY   53  30  41 NW22G30   29.89R
$$

NEZ005>010-023>029-035>040-094-201800-
NORTH CENTRAL NEBRASKA

CITY           SKY/WX    TMP DP  RH WIND       PRES   REMARKS
VALENTINE      CLOUDY    51  35  54 NW17G24   29.80R
AINSWORTH      DRIZZLE   46  43  87 NW13G21   29.80R
BROKEN BOW     CLOUDY    51  40  65 NW28G38   29.79R
O`NEILL        CLOUDY    52  43  69 NW17G23   29.74R
ORD            SUNNY     57  39  51 NW25G35   29.75R
THEDFORD       CLOUDY    51  37  59 NW17G25   29.83R
$$

NEZ041-046>049-061>064-073>077-083>087-201800-
SOUTH CENTRAL NEBRASKA

CITY           SKY/WX    TMP DP  RH WIND       PRES   REMARKS
GRAND ISLAND   PTSUNNY   58  48  69 W17       29.75R
AURORA         CLOUDY    58  52  79 SW17      29.73S
HASTINGS       MOSUNNY   57  46  66 W14       29.76R
HEBRON         CLOUDY    60  54  80 S16       29.75S
HOLDREGE       SUNNY     57  34  41 NW22G29   29.78S
KEARNEY *      MOSUNNY   57  37  47 NW20      29.77S
YORK           CLOUDY    59  55  88 SW14G21   29.74R
$$

NEZ011>018-030>034-042>045-201800-
NORTHEAST NEBRASKA

CITY           SKY/WX    TMP DP  RH WIND       PRES   REMARKS
NORFOLK        CLOUDY    59  53  80 SW13      29.71R
ALBION         CLOUDY    57  51  78 SW6       29.73R
BLAIR          CLOUDY    59  57  93 S17       29.72S
FREMONT        PTSUNNY   60  57  92 S13       29.72F
TEKAMAH        CLOUDY    60  56  86 S14       29.73R
WAYNE          CLOUDY    59  57  92 SW14      29.70R
$$

NEZ050>053-065>068-078-088>093-201800-
SOUTHEAST NEBRASKA

CITY           SKY/WX    TMP DP  RH WIND       PRES   REMARKS
LINCOLN        CLOUDY    61  57  87 S13       29.74S
OMAHA EPPLEY   CLOUDY    60  56  86 S16       29.72F FOG
BEATRICE       CLOUDY    60  58  92 S12G17    29.75F
FALLS CITY     CLOUDY    61  57  87 S12       29.80R
NEBRASKA CITY  CLOUDY    60  60 100 S16       29.77R FOG
PLATTSMOUTH    CLOUDY    59  56  91 S13       29.75F FOG
$$

NEZ044-045-051>053-067-201800-
OMAHA AREA

CITY           SKY/WX    TMP DP  RH WIND       PRES   REMARKS
OMAHA EPPLEY   CLOUDY    60  56  86 S16       29.72F FOG
BLAIR          CLOUDY    59  57  93 S17       29.72S
FREMONT        PTSUNNY   60  57  92 S13       29.72F
MILLARD        CLOUDY    61  59  92 S8G16     29.74S
OFFUTT AFB     CLOUDY    99 N/A N/A S14       29.74F
PLATTSMOUTH    CLOUDY    59  56  91 S13       29.75F FOG
WAHOO          FAIR      60  57  91 S13       29.73S
$$




USA.gov is the U.S. government's official web portal to all federal, state and local government web resources and services.